Regional Weather Roundup
Issued by NWS Sterling, VA

Home | Current Version | Previous Version | Text Only | Print | Product List | Glossary Off
Versions: 1 2 3 4 5 6 7 8 9 10 11 12 13 14 15 16 17 18 19 20 21 22 23 24 25 26 27 28 29 30 31 32 33 34 35 36 37 38 39 40 41 42 43 44 45 46 47 48 49 50

000
ASUS41 KLWX 290511
RWRLWX

REGIONAL WEATHER ROUNDUP
NATIONAL WEATHER SERVICE BALTIMORE MD/WASHINGTON DC
100 AM EDT THU SEP 29 2016

Note: "FAIR" indicates few or no clouds below 12,000 feet
with no significant weather and/or obstructions to visibility.
 TC=TEMPERATURE CELSIUS

 * =Non NWS site. Station does not report precipitation (e.g. rain,
    snow, etc.), thunder, or fog.

DCZ001-MDZ009-015-VAZ040>042-051-053>054-290600-
WASHINGTON METRO

CITY           SKY/WX    TMP DP  RH WIND       PRES   REMARKS
WASHINGTON NAT CLOUDY    70  68  93 E13       30.03S
DULLES         RAIN      68  66  93 E13G24    30.02R
ANDREWS AFB    DRIZZLE   68  66  94 E14G20    30.02F
FT BELVOIR     CLOUDY    70  66  88 VRB3      30.01S
QUANTICO       CLOUDY    72  68  88 SE12      30.02R
COLLEGE PARK*  CLOUDY    66  64  94 E8G16     30.04S
LEESBURG*      CLOUDY    66  66 100 E9G16     30.03F
MANASSAS*      CLOUDY    70  70 100 E10       30.00S
GAITHERSBURG*  CLOUDY    64  61  88 E7G17     30.08S

$$

MDZ006>007-011-014-290600-
BALTIMORE METRO

CITY           SKY/WX    TMP DP  RH WIND       PRES   REMARKS
BWI AIRPORT    LGT RAIN  67  65  93 E21       30.05F
MD SCIENCE CTR   N/A     66  63  90 MISG      30.08S
ANNAPOLIS      RAIN      70  67  90 E16G28    30.03F FOG
FORT MEADE*    CLOUDY    64  63  94 E12G21    30.08F

$$

MDZ012-015-019>023-290600-
MARYLAND EASTERN SHORE

CITY           SKY/WX    TMP DP  RH WIND       PRES   REMARKS
OCEAN CITY     LGT RAIN  72  68  87 E23G32    30.04F
SALISBURY      LGT RAIN  69  69 100 E12G32    30.03F
BAY BRIDGE AP* RAIN      68  66  94 MISG      30.05F FOG
CAMBRIDGE*     CLOUDY    66  64  94 E6        30.08S

$$

MDZ017>025-290600-
SOUTHERN MARYLAND

CITY           SKY/WX    TMP DP  RH WIND       PRES   REMARKS
PATUXENT RIVER RAIN      69  67  93 E20G26    30.03S
ST INIGOES     TSTM      70  68  93 NE15G23   30.02S
LEONARDTOWN*   CLOUDY    68  64  88 E8G17     30.05R

$$

MDZ003>005-290600-
NORTH CENTRAL MARYLAND

CITY           SKY/WX    TMP DP  RH WIND       PRES   REMARKS
FREDERICK*     NOT AVBL
HAGERSTOWN APT LGT RAIN  63  60  90 E12       30.06R

$$

MDZ501>502-290600-
WESTERN MARYLAND

CITY           SKY/WX    TMP DP  RH WIND       PRES   REMARKS
OAKLAND*       FOG       57  57 100 E10G17    30.05R VSB 1/4
CUMBERLAND*    CLOUDY    66  61  82 NE6       30.07S

$$

VAZ025>031-290600-
SHENANDOAH VALLEY

CITY           SKY/WX    TMP DP  RH WIND       PRES   REMARKS
WINCHESTER*    CLOUDY    64  63  94 N3        30.02S
FRONT ROYAL*   CLOUDY    64  64 100 CALM      30.01R
LURAY*         MOCLDY   N/A N/A N/A CALM      30.01S
NEW MARKET*    CLOUDY   N/A N/A N/A NE5       30.00S
STAUNTON*      HVY RAIN  62  60  96 CALM      30.04F
WAYNESBORO*    CLOUDY    62  61  96 CALM      30.03R

$$

WVZ021-048>050-054>055-290600-
EASTERN WEST VIRGINIA PANHANDLE

CITY           SKY/WX    TMP DP  RH WIND       PRES   REMARKS
MARTINSBURG    RAIN      63  62  97 NE10      30.03S FOG
PETERSBURG*    TSTM      64  63  96 W6        30.02R

$$

VAZ036>039-050-290600-
CENTRAL FOOTHILLS

CITY           SKY/WX    TMP DP  RH WIND       PRES   REMARKS
CHARLOTTESVILL CLOUDY    68  66  93 NE6       30.02R
CULPEPER*      LGT RAIN  69  69  98 S5        30.02R
ORANGE*        HVY RAIN  68  68 100 CALM      30.03R
GORDONSVILLE*  CLOUDY    66  66 100 CALM      30.01R
WARRENTON*     RAIN      70  65  84 E10       30.00R

$$

VAZ055>057-290600-
NORTH AND CENTRAL PIEDMONT

CITY           SKY/WX    TMP DP  RH WIND       PRES   REMARKS
FREDERICKSBRG* LGT RAIN  68  68 100 E9G18     29.99F
STAFFORD*      CLOUDY    68  67  97 SE8G20    30.04F

$$

NCZ024-NYZ072-PAZ021-071-VAZ022-071-290600-
OTHER REGIONAL OBSERVATIONS

CITY           SKY/WX    TMP DP  RH WIND       PRES   REMARKS
NEW YORK CITY  CLOUDY    57  53  86 E12G21    30.28S
PHILADELPHIA   LGT RAIN  61  58  90 E14G20    30.20R
PITTSBURGH     CLOUDY    63  59  87 E5        29.99R
ROANOKE        LGT RAIN  64  64 100 NW5       30.03R
RICHMOND       TSTM      65  64  97 E9        30.01R FOG
RALEIGH        TSTM      66  65  96 SE5       29.99F

$$

ANZ530>537-290600-
MARINE OBSERVATIONS

STATION/POSITION TIME  TEMP    WIND        PRES
                       AIR SEA DIR/SP/G
                 (UTC) (F)     (DEG/KT/KT) (MB)
THOMAS PT LIGHT  0500   69 73  100/ 28/ 32 1017.4F
BALT KEY BRIDGE  0448   67      70/ 16/ 20 1018.0F
COVE POINT       0448   68     110/ 23/ 27 1017.5F
LEWISETTA        0448   71 72   80/ 17/ 23 1016.0F
SOLOMONS ISLAND  0448   70 74   80/ 21/ 25   N/A
PINEY POINT      0448           90/ 14/ 17   N/A

$$




USA.gov is the U.S. government's official web portal to all federal, state and local government web resources and services.